DW8052 Weather Reports


time (UTC)temp
F
wind
direction
speed
knots
gust
knots
rain 1hr
in
rain 24hr
in
rain mn
in
humidity
%
barometer
mb
20260510084713 65 159 7.8 15.6 0.00 0.00 0.00 66 1030.5
20260510084213 66 176 11.3 18.2 0.00 0.00 0.00 66 1030.4
20260510083713 66 169 10.4 20.0 0.00 0.00 0.00 65 1030.3
20260510083213 66 179 12.2 17.4 0.00 0.00 0.00 64 1030.3
20260510082713 65 180 10.4 18.2 0.00 0.00 0.00 64 1030.2
20260510082214 65 178 12.2 20.0 0.00 0.00 0.00 64 1030.2
20260510081713 66 174 8.7 17.4 0.00 0.00 0.00 65 1030.1
20260510081213 66 175 13.9 18.2 0.00 0.00 0.00 65 1030.2
20260510080712 66 182 14.8 20.9 0.00 0.00 0.00 66 1030.0
20260510080213 66 168 10.4 17.4 0.00 0.00 0.00 66 1029.9
20260510075713 66 175 13.9 20.0 0.00 0.00 0.00 66 1029.9
20260510075213 66 173 10.4 17.4 0.00 0.00 0.00 66 1029.9
20260510074713 65 171 8.7 14.8 0.00 0.00 0.00 66 1030.0
20260510074213 66 179 11.3 20.0 0.00 0.00 0.00 66 1029.9
20260510073713 66 172 10.4 14.8 0.00 0.00 0.00 66 1029.8
20260510073212 66 176 12.2 19.1 0.00 0.00 0.00 67 1029.8
20260510072712 66 172 11.3 17.4 0.00 0.00 0.00 67 1029.8
20260510072213 66 163 12.2 19.1 0.00 0.00 0.00 67 1029.6
20260510071713 66 164 8.7 15.6 0.00 0.00 0.00 67 1029.3
20260510071212 66 168 13.9 20.0 0.00 0.00 0.00 67 1029.3
20260510070213 66 168 7.8 15.6 0.00 0.00 0.00 67 1029.3
20260510065713 66 169 9.6 17.4 0.00 0.00 0.00 66 1029.2
20260510065213 66 179 13.9 18.2 0.00 0.00 0.00 66 1029.1
20260510064712 66 168 12.2 17.4 0.00 0.00 0.00 66 1029.0
20260510064213 67 165 7.8 14.8 0.00 0.00 0.00 66 1028.8
20260510063713 67 186 10.4 15.6 0.00 0.00 0.00 66 1028.9
20260510063213 67 177 11.3 20.0 0.00 0.00 0.00 67 1028.9
20260510061713 67 165 12.2 20.0 0.00 0.00 0.00 67 1028.8
20260510061212 67 157 8.7 18.2 0.00 0.00 0.00 67 1028.7
20260510060713 68 162 13.9 22.6 0.00 0.00 0.00 66 1028.7
20260510055713 68 148 13.9 19.1 0.00 0.00 0.00 66 1028.5
20260510054713 68 167 8.7 19.1 0.00 0.00 0.00 66 1028.4
20260510054213 68 174 10.4 18.2 0.00 0.00 0.00 66 1028.4
20260510053713 68 164 14.8 20.9 0.00 0.00 0.00 66 1028.4
20260510053213 69 183 10.4 17.4 0.00 0.00 0.00 66 1028.5
20260510052713 69 173 13.0 20.9 0.00 0.00 0.00 65 1028.3
20260510052212 69 186 11.3 19.1 0.00 0.00 0.00 65 1028.4
20260510051712 69 168 11.3 19.1 0.00 0.00 0.00 65 1028.2
20260510051213 69 181 13.9 20.0 0.00 0.00 0.00 64 1028.3
20260510050713 69 153 12.2 20.9 0.00 0.00 0.00 63 1028.1
20260510050213 69 173 10.4 17.4 0.00 0.00 0.00 62 1028.1
20260510045713 69 166 14.8 19.1 0.00 0.00 0.00 61 1028.4
20260510045213 69 159 13.9 18.2 0.00 0.00 0.00 60 1028.0
20260510044713 69 183 15.6 20.0 0.00 0.00 0.00 60 1028.1
20260510044213 69 170 13.9 18.2 0.00 0.00 0.00 61 1028.1
20260510043713 70 130 11.3 18.2 0.00 0.00 0.00 61 1027.9
20260510043213 70 176 13.0 18.2 0.00 0.00 0.00 60 1028.0
20260510042713 70 173 8.7 17.4 0.00 0.00 0.00 62 1028.1
20260510042212 70 165 13.9 20.0 0.00 0.00 0.00 61 1028.0
20260510041712 70 161 10.4 17.4 0.00 0.00 0.00 60 1028.1
20260510041213 70 150 12.2 17.4 0.00 0.00 0.00 59 1028.1
20260510040712 70 153 7.8 13.9 0.00 0.00 0.00 59 1028.2
20260510040213 71 148 10.4 17.4 0.00 0.00 0.00 58 1028.2
20260510035712 71 171 10.4 15.6 0.00 0.00 0.00 58 1028.0
20260510035212 71 184 8.7 18.2 0.00 0.00 0.00 57 1028.1
20260510034713 70 171 10.4 18.2 0.00 0.00 0.00 56 1028.0
20260510034212 70 163 11.3 15.6 0.00 0.00 0.00 56 1028.2
20260510033713 70 164 11.3 15.6 0.00 0.00 0.00 57 1028.1
20260510033212 70 176 13.0 17.4 0.00 0.00 0.00 56 1028.0
20260510032712 71 150 13.9 19.1 0.00 0.00 0.00 57 1028.0
20260510031712 71 169 6.1 13.9 0.00 0.00 0.00 58 1028.2
20260510031213 71 143 7.8 17.4 0.00 0.00 0.00 58 1028.2
20260510030712 72 161 10.4 15.6 0.00 0.00 0.00 56 1028.0
20260510030212 72 142 6.1 13.0 0.00 0.00 0.00 54 1028.1
20260510025713 72 162 8.7 12.2 0.00 0.00 0.00 53 1028.2
20260510025213 72 184 7.8 13.0 0.00 0.00 0.00 51 1028.2
20260510024713 72 167 10.4 15.6 0.00 0.00 0.00 52 1028.2
20260510024213 73 141 7.8 13.9 0.00 0.00 0.00 52 1028.3
20260510023712 73 154 11.3 13.9 0.00 0.00 0.00 51 1028.4
20260510023213 73 155 8.7 13.9 0.00 0.00 0.00 52 1028.3
20260510022712 72 160 10.4 13.9 0.00 0.00 0.00 51 1028.6
20260510022212 73 160 9.6 13.0 0.00 0.00 0.00 52 1028.5
20260510021712 73 154 9.6 13.0 0.00 0.00 0.00 50 1028.6
20260510021213 73 154 10.4 14.8 0.00 0.00 0.00 47 1028.6
20260510020712 74 152 10.4 15.6 0.00 0.00 0.00 45 1028.5
20260510015212 76 145 0.9 4.3 0.00 0.00 0.00 46 1028.6
20260510014713 76 329 0.0 2.6 0.00 0.00 0.00 46 1028.9
20260510014212 76 41 0.9 2.6 0.00 0.00 0.00 46 1029.1
20260510013713 75 94 0.9 6.1 0.00 0.00 0.00 47 1029.1
20260510012712 75 135 0.0 1.7 0.00 0.00 0.00 48 1029.2
20260510012213 74 130 0.9 2.6 0.00 0.00 0.00 50 1029.0
20260510011712 73 97 0.0 1.7 0.00 0.00 0.00 52 1029.1
20260510011212 72 104 0.0 0.9 0.00 0.00 0.00 54 1029.1
20260510010712 71 74 0.0 0.9 0.00 0.00 0.00 55 1029.4
20260510010212 70 51 0.0 2.6 0.00 0.00 0.00 55 1029.2
20260510005712 70 39 0.9 2.6 0.00 0.00 0.00 55 1029.4
20260510005212 70 344 0.9 2.6 0.00 0.00 0.00 56 1029.3
20260510004712 69 358 2.6 4.3 0.00 0.00 0.00 56 1029.4
20260510004212 69 358 0.9 2.6 0.00 0.00 0.00 57 1029.3
20260510003712 68 357 1.7 5.2 0.00 0.00 0.00 59 1029.3
20260510003212 68 349 0.0 0.9 0.00 0.00 0.00 60 1029.2
20260510002712 67 298 0.0 0.9 0.00 0.00 0.00 61 1029.2
20260510001712 66 355 2.6 4.3 0.00 0.00 0.00 63 1029.3
20260510001212 65 326 3.5 4.3 0.00 0.00 0.00 63 1029.2
20260510000712 65 347 2.6 4.3 0.00 0.00 0.00 64 1029.1
20260510000212 64 330 4.3 6.1 0.00 0.00 0.00 65 1029.1
20260509235712 64 324 2.6 5.2 0.00 0.00 0.00 65 1029.1
20260509234712 63 340 1.7 5.2 0.00 0.00 0.00 66 1029.1
20260509233712 63 341 4.3 6.1 0.00 0.00 0.00 66 1029.0
20260509233212 62 325 4.3 6.1 0.00 0.00 0.00 67 1028.9
20260509232712 62 333 4.3 7.0 0.00 0.00 0.00 67 1028.8
20260509232212 62 336 5.2 7.0 0.00 0.00 0.00 68 1029.1
20260509231712 61 328 6.1 7.0 0.00 0.00 0.00 70 1028.9
20260509231212 60 319 5.2 7.0 0.00 0.00 0.00 71 1029.0
20260509230713 60 315 5.2 7.0 0.00 0.00 0.00 71 1029.1
20260509230212 59 320 6.1 7.0 0.00 0.00 0.00 71 1028.8
20260509225711 59 315 6.1 7.0 0.00 0.00 0.00 72 1029.1
20260509225212 59 319 6.1 7.8 0.00 0.00 0.00 73 1029.1
20260509224712 58 323 6.1 7.0 0.00 0.00 0.00 73 1029.2
20260509224213 58 323 6.1 7.8 0.00 0.00 0.00 74 1029.2
20260509223712 57 312 7.0 7.8 0.00 0.00 0.00 74 1029.0
20260509223212 57 315 7.0 7.8 0.00 0.00 0.00 74 1029.0
20260509222712 57 312 5.2 6.1 0.00 0.00 0.00 74 1028.9
20260509221712 58 321 6.1 7.8 0.00 0.00 0.00 73 1028.8
20260509221212 58 317 5.2 6.1 0.00 0.00 0.00 74 1028.9
20260509220712 57 316 5.2 6.1 0.00 0.00 0.00 74 1029.0
20260509220212 57 285 6.1 7.0 0.00 0.00 0.00 74 1028.7
20260509215212 57 277 6.1 7.0 0.00 0.00 0.00 76 1028.8
20260509214712 57 278 6.1 7.0 0.00 0.00 0.00 76 1028.5
20260509214212 56 277 6.1 7.0 0.00 0.00 0.00 78 1028.5
20260509213212 55 275 7.0 8.7 0.00 0.00 0.00 78 1028.5
20260509212712 55 282 7.0 7.8 0.00 0.00 0.00 78 1028.3
20260509212212 55 288 6.1 7.8 0.00 0.00 0.00 77 1028.3
20260509211212 55 285 7.0 7.0 0.00 0.00 0.00 76 1028.1
20260509210712 56 290 6.1 7.0 0.00 0.00 0.00 76 1028.0
20260509205712 57 272 5.2 7.0 0.00 0.00 0.00 78 1027.8
20260509205212 56 260 5.2 6.1 0.00 0.00 0.00 78 1027.8
20260509204712 56 256 5.2 6.1 0.00 0.00 0.00 79 1027.8
20260509204212 56 255 5.2 7.0 0.00 0.00 0.00 79 1028.0
20260509203712 55 259 5.2 7.0 0.00 0.00 0.00 80 1027.8
20260509203212 55 260 6.1 7.8 0.00 0.00 0.00 80 1027.6
20260509202712 55 258 7.8 8.7 0.00 0.00 0.00 80 1027.5
20260509202212 54 255 7.8 8.7 0.00 0.00 0.00 81 1027.5
20260509201212 54 268 7.8 8.7 0.00 0.00 0.00 81 1027.4
20260509200711 54 274 7.8 8.7 0.00 0.00 0.00 81 1027.6
20260509200212 53 288 7.8 8.7 0.00 0.00 0.00 81 1027.2
20260509194712 54 306 7.8 10.4 0.00 0.00 0.00 78 1027.3
20260509194212 54 305 7.8 10.4 0.00 0.00 0.00 77 1027.1
20260509193712 55 309 7.8 8.7 0.00 0.00 0.00 76 1027.2
20260509193212 55 288 6.1 7.0 0.00 0.00 0.00 76 1027.2
20260509192712 55 287 6.1 7.0 0.00 0.00 0.00 76 1026.8
20260509192212 55 283 6.1 7.8 0.00 0.00 0.00 75 1026.9
20260509191712 55 296 6.1 7.0 0.00 0.00 0.00 75 1026.8
20260509191212 56 301 6.1 7.0 0.00 0.00 0.00 75 1026.7
20260509190212 56 308 4.3 5.2 0.00 0.00 0.00 73 1026.7
20260509185711 57 284 2.6 4.3 0.00 0.00 0.00 73 1026.5
20260509185212 57 249 1.7 5.2 0.00 0.00 0.00 74 1026.6
20260509184711 57 232 3.5 6.1 0.00 0.00 0.00 74 1026.6
20260509184212 57 245 5.2 7.0 0.00 0.00 0.00 74 1026.4
20260509183712 57 261 6.1 10.4 0.00 0.00 0.00 74 1026.4
20260509183212 57 254 8.7 10.4 0.00 0.00 0.00 73 1026.2
20260509182712 57 258 6.1 8.7 0.00 0.00 0.00 73 1026.1
20260509182212 57 267 7.8 10.4 0.00 0.00 0.00 74 1026.1
20260509180712 56 267 6.1 8.7 0.00 0.00 0.00 73 1026.1
20260509180212 57 269 7.8 8.7 0.00 0.00 0.00 73 1026.1
20260509175711 57 267 7.0 10.4 0.00 0.00 0.00 73 1026.0
20260509175211 57 266 10.4 11.3 0.00 0.00 0.00 74 1026.0
20260509174712 56 274 10.4 12.2 0.00 0.00 0.00 73 1025.8
20260509174211 56 272 7.8 10.4 0.00 0.00 0.00 73 1026.0
20260509173711 57 273 7.8 10.4 0.00 0.00 0.00 73 1025.9
20260509173212 57 267 8.7 10.4 0.00 0.00 0.00 72 1025.9
20260509172712 57 260 7.8 10.4 0.00 0.00 0.00 72 1026.2
20260509172211 58 271 7.8 8.7 0.00 0.00 0.00 71 1026.3
20260509171712 58 270 6.1 7.8 0.00 0.00 0.00 71 1026.2
20260509171212 58 266 6.1 7.0 0.00 0.00 0.00 72 1026.0
20260509170712 58 258 5.2 7.0 0.00 0.00 0.00 72 1026.1
20260509170212 58 253 6.1 7.0 0.00 0.00 0.00 72 1026.1
20260509165711 58 251 6.1 7.8 0.00 0.00 0.00 72 1026.2
20260509165211 58 250 7.0 7.8 0.00 0.00 0.00 73 1025.9
20260509164211 58 241 6.1 7.0 0.00 0.00 0.00 73 1026.1
20260509163711 58 245 6.1 7.0 0.00 0.00 0.00 72 1026.1
20260509162711 58 240 6.1 7.8 0.00 0.00 0.00 72 1026.1
20260509161711 58 236 7.0 7.8 0.00 0.00 0.00 72 1026.2
20260509160711 59 239 7.0 7.8 0.00 0.00 0.00 71 1026.2
20260509155711 59 235 7.0 7.8 0.00 0.00 0.00 71 1026.3
20260509155212 59 226 7.0 7.8 0.00 0.00 0.00 73 1026.4
20260509154212 58 225 7.8 7.8 0.00 0.00 0.00 75 1026.3
20260509153212 58 235 7.0 7.8 0.00 0.00 0.00 74 1026.4
20260509152711 58 237 7.0 8.7 0.00 0.00 0.00 74 1026.3
20260509152211 58 239 7.0 7.8 0.00 0.00 0.00 74 1026.2
20260509151712 58 238 7.0 7.8 0.00 0.00 0.00 74 1026.4
20260509151211 58 235 7.0 7.8 0.00 0.00 0.00 74 1026.2
20260509150711 58 238 7.0 7.8 0.00 0.00 0.00 74 1026.3
20260509145211 58 235 7.0 7.8 0.00 0.00 0.00 74 1026.2
20260509144712 58 232 7.0 8.7 0.00 0.00 0.00 75 1026.2
20260509144212 58 233 7.8 8.7 0.00 0.00 0.00 75 1026.3
20260509143711 58 235 7.0 7.8 0.00 0.00 0.00 75 1026.4
20260509143211 58 238 7.0 7.8 0.00 0.00 0.00 75 1026.3
20260509142711 57 239 7.0 8.7 0.00 0.00 0.00 75 1026.3
20260509141712 57 242 7.0 7.8 0.00 0.00 0.00 75 1026.5
20260509141211 57 247 7.0 7.8 0.00 0.00 0.00 75 1026.3
20260509140712 57 248 7.8 8.7 0.00 0.00 0.00 75 1026.2
20260509140211 57 245 7.8 8.7 0.00 0.00 0.00 75 1026.2
20260509135712 57 247 7.8 7.8 0.00 0.00 0.00 75 1026.5
20260509134711 58 247 7.8 8.7 0.00 0.00 0.00 75 1026.3
20260509133712 58 243 6.1 7.8 0.00 0.00 0.00 75 1026.3
20260509132711 57 247 6.1 7.8 0.00 0.00 0.00 75 1026.3
20260509132211 58 251 6.1 7.0 0.00 0.00 0.00 74 1026.4
20260509131711 58 248 6.1 7.8 0.00 0.00 0.00 74 1026.3
20260509131211 58 248 6.1 7.8 0.00 0.00 0.00 74 1026.5
20260509130711 58 250 6.1 8.7 0.00 0.00 0.00 74 1026.6
20260509130211 58 248 7.0 7.8 0.00 0.00 0.00 74 1026.4
20260509125711 58 250 7.0 7.8 0.00 0.00 0.00 73 1026.5
20260509125211 58 251 7.0 8.7 0.00 0.00 0.00 73 1026.4
20260509124711 58 248 7.8 8.7 0.00 0.00 0.00 73 1026.5
20260509124211 58 250 7.0 7.8 0.00 0.00 0.00 73 1026.4
20260509123711 58 257 6.1 7.0 0.00 0.00 0.00 72 1026.6
20260509123211 58 259 6.1 8.7 0.00 0.00 0.00 72 1026.6
20260509122711 58 254 7.8 10.4 0.00 0.00 0.00 71 1026.5
20260509121211 59 250 7.0 8.7 0.00 0.00 0.00 71 1026.8
20260509115711 59 246 7.8 10.4 0.00 0.00 0.00 70 1026.4
20260509115211 60 248 6.1 7.0 0.00 0.00 0.00 70 1026.7
20260509114711 60 251 6.1 7.8 0.00 0.00 0.00 70 1026.6
20260509113711 60 250 7.0 8.7 0.00 0.00 0.00 69 1026.4
20260509112211 60 254 7.0 7.0 0.00 0.00 0.00 68 1026.5
20260509111211 61 255 6.1 7.0 0.00 0.00 0.00 67 1026.3
20260509110711 61 259 5.2 7.0 0.00 0.00 0.00 66 1026.6
20260509104711 63 224 5.2 6.1 0.00 0.00 0.00 64 1026.2
20260509104211 63 191 5.2 7.0 0.00 0.00 0.00 64 1026.3
20260509103712 63 199 6.1 7.8 0.00 0.00 0.00 63 1026.1
20260509103211 63 196 6.1 7.8 0.00 0.00 0.00 63 1026.3
20260509102711 63 187 7.0 7.8 0.00 0.00 0.00 63 1026.0
20260509102211 63 196 6.1 7.8 0.00 0.00 0.00 63 1026.1
20260509101711 63 189 6.1 7.8 0.00 0.00 0.00 63 1025.9
20260509100711 63 192 5.2 7.0 0.00 0.00 0.00 63 1026.0
20260509100211 63 193 5.2 7.0 0.00 0.00 0.00 64 1026.2
20260509095211 63 194 5.2 7.8 0.00 0.00 0.00 63 1025.7
20260509094711 63 194 6.1 7.8 0.00 0.00 0.00 63 1025.7
20260509094211 63 188 5.2 7.0 0.00 0.00 0.00 63 1025.8
20260509093711 63 195 6.1 7.8 0.00 0.00 0.00 61 1025.7
20260509093210 63 181 6.1 8.7 0.00 0.00 0.00 61 1025.6
20260509092211 63 183 6.1 7.8 0.00 0.00 0.00 61 1025.6
20260509091711 63 188 6.1 7.8 0.00 0.00 0.00 61 1025.6
20260509091210 63 182 6.1 7.8 0.00 0.00 0.00 62 1025.6
20260509090710 63 182 5.2 7.0 0.00 0.00 0.00 62 1025.4
20260509090211 63 184 4.3 5.2 0.00 0.00 0.00 62 1025.5
20260509085710 64 180 4.3 5.2 0.00 0.00 0.00 62 1025.4
20260509085211 64 172 2.6 4.3 0.00 0.00 0.00 62 1025.3